Location: Cahas Mountain Overlook
(37.0833°N, 80.1000°W)
Time: 01:51:22
(UTC-05:00)

A-11 Canister half - Pass Details

Date: 30 November 2023
Orbit: 1512 x 1687 km, 47.2° (Epoch: 01 March)

Event Time Altitude Azimuth Distance (km) Brightness Sun altitude
Exits shadow 04:54:57 36° 318° (NW) 2,400 9.6 -27.2°
Maximum altitude 04:58:22 47° 2° (N) 2,102 9.6 -26.6°
Drops below altitude 10° 05:08:05 10° 74° (ENE) 3,950 12.0 -24.6°
Sets 05:11:29 0° 81° (E) 4,941 12.9 -24.0°
